GEFSSE_con_cape1000_030.txt.gz
Probability
0 0 29 97 100 100 100 100 100 97 97 94 97 94 94 90 90 94 87 90 94 97 97 94 94 97 90 94 94 97 97 97 94 97 87 84 84 77 71 35 42 3 45
0 3 35 97 100 100 100 100 100 100 100 97 100 100 97 97 94 94 87 87 87 87 87 94 81 77 71 71 81 77 87 84 84 74 74 65 65 45 39 23 58 71 58
0 10 29 97 97 100 100 100 100 100 100 100 100 100 97 97 97 90 84 81 84 84 81 84 74 65 58 65 68 71 65 81 77 71 65 6 23 61 26 16 32 58 48
0 6 3 97 97 100 100 100 100 100 100 100 100 97 97 97 94 90 87 84 74 71 65 74 77 81 68 52 52 55 45 42 58 45 6 3 3 71 71 45 23 29 42
0 0 29 94 97 97 100 100 100 100 100 100 100 97 90 94 97 97 97 87 74 45 45 45 52 90 87 87 77 68 45 29 19 6 3 16 23 61 77 81 65 48 52
6 0 35 94 97 97 97 97 100 100 100 100 94 87 84 84 97 97 90 84 77 45 26 23 42 71 94 100 100 97 90 81 35 3 3 13 32 74 77 97 97 97 90
10 10 29 87 90 94 94 97 97 100 100 100 97 90 87 81 71 68 68 58 61 55 48 48 71 84 94 97 97 97 94 94 68 13 16 19 42 84 90 100 97 97 97
10 16 32 74 84 87 90 87 97 100 100 100 97 94 94 84 61 48 52 68 71 74 81 87 94 90 90 90 97 100 100 97 19 13 19 23 58 71 81 97 100 97 100
3 16 39 23 68 74 84 90 97 100 100 100 100 100 97 97 94 81 81 81 77 81 84 84 87 77 84 97 97 97 97 97 48 29 16 42 84 94 87 100 100 100 100
26 35 68 32 26 26 29 77 100 100 100 100 100 100 100 100 97 94 97 94 74 74 77 84 87 87 97 100 100 100 100 94 10 0 58 77 97 97 94 97 97 100 100
42 77 81 74 71 35 16 29 68 100 100 100 100 100 100 100 74 94 71 87 81 84 90 97 97 100 100 100 100 100 100 23 13 3 3 29 94 90 97 97 97 100 100
90 94 97 87 84 61 16 32 52 45 90 97 100 100 100 97 97 32 26 68 84 97 100 100 100 100 100 97 97 100 77 48 42 19 13 55 94 90 100 100 100 97 100
100 100 100 100 100 84 58 55 55 68 100 97 90 100 100 97 94 58 58 74 94 97 90 94 100 97 97 94 87 77 77 65 71 55 48 94 97 97 100 100 100 100 100
84 81 94 100 100 100 97 90 90 90 100 100 100 97 94 97 87 65 84 39 45 90 97 97 100 90 94 90 94 94 84 90 87 87 94 97 100 100 100 100 100 100 100
97 84 97 100 100 100 100 100 100 100 90 90 100 94 90 87 90 74 100 100 94 81 87 94 94 97 100 100 100 90 90 90 90 87 100 100 100 100 100 100 100 100 100
97 100 100 100 100 100 100 100 100 100 100 94 100 97 100 100 100 100 100 100 100 100 97 97 97 100 100 100 100 100 100 97 94 100 100 100 100 100 100 100 100 100 100
81 84 97 100 100 100 100 100 100 100 100 100 100 100 100 100 100 100 100 100 100 100 100 100 100 100 100 100 100 100 100 100 100 100 100 100 100 100 100 100 100 100 100
84 87 94 94 100 100 100 100 100 100 97 100 100 100 100 100 100 100 100 100 100 100 100 100 100 100 100 100 100 100 97 100 100 100 97 100 100 100 100 100 100 100 100
97 97 100 100 100 100 100 100 100 100 100 100 100 100 100 100 100 100 100 100 100 100 100 97 100 100 100 100 100 100 100 97 100 97 97 94 94 97 97 97 100 100 100
100 100 100 100 100 97 97 97 97 97 97 100 100 100 100 100 97 97 100 100 100 100 94 90 90 94 100 100 90 87 87 81 87 87 87 65 74 65 71 77 94 94 97
97 97 97 97 100 97 90 90 94 94 94 97 100 90 87 87 90 90 90 90 94 90 84 77 81 77 81 87 84 61 39 39 45 81 71 58 29 29 52 77 97 94 97
97 97 97 97 97 94 90 87 90 90 87 87 77 68 58 48 45 45 58 58 68 74 74 71 74 71 71 61 55 39 16 0 26 6 35 52 35 23 19 42 84 94 90
90 94 90 94 94 90 87 90 90 94 90 74 65 55 48 32 29 29 23 32 42 42 42 48 48 55 39 39 32 32 10 0 3 0 16 23 52 48 23 19 42 68 68
87 84 87 90 94 94 94 94 90 90 81 74 61 45 39 26 19 13 6 6 13 26 26 32 19 32 42 39 32 61 58 45 23 0 3 23 48 58 29 13 13 26 39
71 77 84 77 90 90 87 94 90 87 84 68 52 48 32 23 16 6 6 6 10 13 10 13 26 26 23 26 26 29 42 55 42 26 3 32 35 42 39 35 29 26 26
55 65 71 81 81 81 87 87 84 81 71 55 48 42 32 13 3 3 3 6 6 6 6 6 6 13 19 19 29 32 35 35 29 32 23 35 52 61 61 55 45 32 32

GEFSSE_con_cape1000_036.txt.gz
Probability
16 39 100 100 100 100 100 97 94 94 90 81 77 68 68 71 74 87 90 90 100 100 100 100 100 81 74 71 81 90 90 87 81 84 81 71 68 52 45 58 84 35 81
23 39 100 100 100 100 100 97 97 94 94 94 87 84 77 71 65 68 71 81 84 84 84 71 68 68 58 55 61 74 68 52 42 42 35 48 42 32 19 61 87 45 68
19 58 100 100 100 100 100 100 100 97 97 97 94 87 90 84 61 55 52 52 65 71 61 45 42 39 32 23 29 42 42 26 26 26 42 35 19 35 16 16 39 48 19
13 35 94 100 100 100 100 100 100 100 100 100 90 90 84 77 58 39 26 26 32 39 19 10 19 19 10 16 13 19 13 6 3 19 26 58 19 42 45 10 10 16 13
0 13 100 100 100 100 100 100 100 100 100 97 90 90 90 71 65 42 39 29 29 23 13 10 10 26 29 19 6 3 3 10 16 23 10 19 29 81 87 42 19 16 16
0 35 100 100 100 100 100 100 100 100 100 94 90 90 84 77 77 61 68 58 45 35 16 10 10 23 45 58 48 39 39 35 39 13 6 13 32 90 100 94 71 65 77
3 65 94 100 100 100 100 100 100 100 100 94 87 87 84 74 74 74 65 58 61 42 26 19 19 39 58 84 94 90 94 87 84 39 23 39 77 94 100 100 97 97 97
19 42 84 100 100 100 100 100 100 100 100 94 84 77 74 68 68 68 68 52 45 48 45 52 65 84 90 94 97 100 100 100 52 13 16 45 94 97 100 97 97 100 100
26 35 52 90 100 100 100 100 100 100 100 100 97 84 81 77 65 58 65 68 68 68 68 71 81 84 97 100 100 100 100 100 100 19 3 29 100 100 100 97 94 97 100
35 39 19 42 90 90 97 100 100 100 100 100 100 100 94 87 84 94 100 100 97 87 90 97 97 97 100 100 100 100 100 100 87 6 0 23 100 100 97 97 97 100 100
61 65 16 16 52 52 26 77 100 100 100 100 100 100 100 100 97 100 94 100 100 97 100 100 100 100 100 100 100 100 100 94 16 10 13 52 100 100 97 100 100 100 100
71 74 61 35 39 19 6 29 48 58 94 100 100 100 100 100 100 100 100 100 100 100 100 100 100 100 100 94 100 100 94 81 52 42 52 94 100 100 100 100 100 100 100
100 87 77 87 81 39 39 58 26 26 71 87 94 100 100 100 100 100 100 100 100 100 100 100 100 97 97 100 100 100 90 90 87 87 90 100 100 100 100 100 100 100 100
100 97 87 97 97 100 81 81 81 68 87 84 90 100 100 100 100 100 100 100 100 100 100 100 100 100 100 100 100 100 100 100 100 97 100 100 100 100 100 100 100 100 100
100 100 100 100 100 100 100 100 90 97 87 97 100 100 100 100 100 100 100 100 100 100 100 100 100 100 100 100 100 100 100 100 100 100 100 100 100 100 100 100 100 100 100
100 100 100 100 100 100 100 100 100 100 100 100 100 100 100 100 100 100 100 100 100 100 100 100 100 100 100 100 100 100 100 100 100 100 100 100 100 100 100 100 100 100 100
100 100 100 100 100 100 100 100 100 100 100 100 100 100 100 100 100 100 100 100 100 100 100 100 100 100 100 100 100 100 100 100 100 100 100 100 100 100 100 100 100 100 100
100 100 100 100 100 100 100 100 100 100 100 100 100 100 100 100 100 100 100 100 100 100 97 97 97 97 97 94 94 90 90 97 100 100 100 100 100 100 100 100 100 100 100
100 100 100 100 100 100 100 100 100 100 100 100 100 100 100 97 97 97 97 97 97 97 94 77 87 87 81 77 74 84 87 87 100 97 97 97 97 97 100 100 100 100 100
100 100 100 100 100 100 100 100 100 100 100 100 100 100 100 97 97 97 94 90 90 77 74 74 74 74 68 58 52 35 58 58 74 74 84 84 97 97 100 94 100 100 100
100 100 100 100 100 100 100 100 100 100 100 100 100 100 100 100 94 90 84 81 77 77 71 68 65 65 65 55 42 32 35 48 52 55 74 84 81 94 94 94 94 94 97
94 100 100 100 100 100 100 100 100 100 100 100 100 100 97 94 87 81 77 74 68 68 65 58 52 52 42 39 42 35 32 19 58 32 71 77 90 94 87 77 84 94 94
90 94 94 100 100 100 100 100 100 100 100 100 100 100 94 87 81 77 74 71 65 55 42 48 39 39 32 26 19 16 10 3 16 26 42 55 97 97 74 71 68 84 84
71 71 87 94 100 100 100 100 97 97 97 97 100 100 90 81 71 58 58 48 45 42 45 32 23 26 32 19 13 19 32 35 19 6 10 26 52 61 74 45 52 48 58
39 55 71 90 94 97 97 97 97 97 97 97 97 97 94 81 65 61 48 45 45 42 42 32 32 32 23 10 16 19 26 35 39 26 3 13 26 42 52 58 58 48 32
23 32 48 77 94 97 94 97 97 94 97 97 97 97 90 81 74 68 45 42 42 48 39 45 42 35 26 19 29 32 35 32 19 19 3 3 10 26 58 61 39 42 29

GEFSSE_con_cape1000_042.txt.gz
Probability
6 94 100 100 100 100 90 87 74 74 77 90 97 97 94 97 100 100 100 100 100 100 97 90 87 84 94 94 94 94 97 97 94 94 90 90 94 94 94 97 90 87 94
13 97 100 100 100 100 94 90 87 84 87 81 87 94 94 97 97 97 100 100 100 90 81 84 77 71 74 74 77 81 77 77 74 68 48 58 65 77 87 90 84 84 94
23 97 100 100 100 100 94 90 94 90 90 87 90 87 87 87 90 87 94 97 97 81 68 65 42 35 45 42 45 42 35 35 32 32 26 13 26 81 84 87 87 94 90
35 84 97 100 100 94 94 94 94 94 94 90 94 90 94 94 90 81 81 81 84 65 52 39 23 16 16 19 19 23 13 10 16 16 6 6 3 52 87 90 84 74 71
32 68 97 100 100 97 97 97 97 97 94 100 100 97 97 94 94 90 77 74 74 68 39 35 23 13 13 19 16 23 23 19 16 23 13 0 0 39 90 94 87 81 77
29 68 97 100 100 100 100 100 100 100 97 97 97 97 97 94 94 84 81 74 65 68 58 39 48 45 45 48 45 39 42 52 52 23 10 0 0 39 94 97 97 87 87
35 81 97 100 100 100 100 100 100 100 100 100 100 100 97 97 97 90 87 90 90 81 71 71 74 84 87 94 97 97 97 84 71 35 13 3 0 39 97 97 100 100 97
45 81 97 100 100 100 100 100 100 100 100 100 100 100 100 100 97 97 94 90 90 84 90 97 100 97 97 100 100 100 100 100 100 55 10 0 3 52 100 100 100 100 100
29 77 100 100 100 100 100 100 100 100 100 100 100 100 100 100 100 100 100 100 100 100 100 100 100 97 100 100 100 100 100 100 100 94 68 3 3 97 100 100 100 100 100
13 55 94 100 100 100 100 100 100 100 100 100 100 100 100 100 100 100 100 100 100 100 100 100 100 100 100 100 100 100 100 100 100 97 84 39 81 100 100 100 100 100 100
6 35 81 87 87 90 100 100 100 100 100 100 100 100 100 94 81 97 100 100 100 100 100 100 100 100 100 100 100 100 100 100 94 87 48 55 94 100 100 100 100 100 100
3 6 52 74 68 61 94 100 100 100 100 100 100 100 100 71 52 84 87 100 100 100 100 100 100 100 100 100 100 100 100 94 87 71 23 87 100 100 100 100 100 100 100
3 3 3 23 48 39 13 29 94 97 97 97 97 90 90 74 45 87 65 97 100 100 100 100 100 100 100 94 77 52 42 58 58 32 39 100 100 100 100 100 100 100 100
6 3 0 6 6 6 3 10 23 39 55 81 81 84 77 68 58 61 71 65 90 100 100 97 84 77 81 61 39 29 35 42 55 26 16 100 100 100 100 100 100 100 100
19 13 3 3 3 3 3 0 3 6 6 23 32 48 68 77 74 87 87 74 81 90 90 84 71 58 55 48 42 52 61 65 65 48 29 100 100 100 100 100 100 100 100
32 29 16 6 10 16 19 19 16 16 16 23 26 23 45 71 87 87 77 71 77 61 74 71 61 65 68 68 58 84 84 81 84 77 68 81 94 97 100 100 100 100 100
42 55 45 26 29 35 55 61 52 52 42 45 42 35 39 68 74 94 90 77 65 52 45 52 71 61 65 61 55 58 52 52 68 65 71 65 68 90 100 100 100 100 100
71 77 77 77 71 68 71 84 84 81 77 77 74 77 81 77 81 84 94 90 74 65 65 61 55 42 29 19 13 23 23 19 29 39 35 35 45 71 94 100 100 100 100
77 81 87 90 81 84 84 84 87 97 97 94 90 90 97 100 94 87 94 84 77 71 71 58 35 23 23 23 19 16 13 13 10 10 6 19 19 29 42 74 97 97 100
77 77 84 81 81 84 90 87 94 100 100 97 97 94 97 97 94 90 84 81 74 65 42 32 26 19 16 13 19 16 13 10 10 10 6 10 6 6 13 26 58 90 100
65 71 71 74 68 77 77 81 94 94 97 94 90 90 90 87 90 90 90 77 65 52 35 29 23 19 13 10 10 6 6 6 6 6 0 0 3 3 0 6 23 42 68
65 65 58 68 55 77 77 87 87 94 94 84 87 84 87 81 81 90 71 61 39 32 23 23 23 16 13 10 6 6 3 0 0 0 0 0 0 3 3 3 0 16 35
52 52 58 45 65 58 61 68 74 74 74 77 77 71 68 68 71 65 55 45 35 39 32 19 19 13 13 10 3 0 0 0 0 0 0 0 0 0 0 0 0 0 6
29 42 39 35 52 61 58 52 52 65 61 65 58 65 58 61 68 61 48 42 39 35 19 16 13 13 13 13 3 0 0 0 0 0 0 0 0 0 0 0 0 0 0
29 26 29 32 35 39 42 48 45 45 45 42 39 35 48 39 32 39 39 35 32 26 19 13 13 13 13 13 3 0 0 0 0 0 0 0 0 0 0 0 0 0 0
19 19 23 29 26 26 32 32 32 35 29 26 23 29 29 29 26 23 29 32 29 26 13 10 6 6 6 3 0 0 0 0 0 0 0 0 0 0 0 0 0 0 0

GEFSSE_con_cape1000_048.txt.gz
Probability
0 55 100 90 77 74 84 97 97 97 100 100 100 100 100 100 97 97 90 90 84 68 71 77 87 90 90 90 90 90 90 90 94 97 94 97 94 94 94 87 77 87 97
0 74 100 94 74 68 74 87 90 100 100 100 100 100 100 100 100 97 97 87 71 48 48 68 68 77 81 84 87 90 90 90 77 74 68 74 87 87 87 77 58 94 94
6 74 97 97 84 68 71 77 90 100 100 100 100 100 97 97 97 94 90 84 74 39 29 32 45 52 58 68 71 77 77 71 58 48 52 39 55 77 87 84 65 90 87
35 74 87 100 94 87 74 81 90 94 97 100 100 97 97 97 97 87 87 81 71 42 26 19 19 19 32 32 42 45 39 29 26 19 10 6 16 52 84 87 84 87 90
52 71 90 100 97 94 84 84 90 94 97 97 97 97 97 94 94 90 84 81 74 52 39 23 6 6 13 23 23 23 23 29 26 19 16 13 3 26 84 94 94 97 94
45 58 94 100 97 94 90 94 97 97 94 97 100 100 97 90 90 84 87 90 81 68 55 45 29 19 16 26 26 32 32 29 39 29 23 16 10 10 84 97 97 97 97
19 55 94 100 100 97 97 97 97 97 97 100 100 100 100 97 94 90 87 87 94 90 94 90 84 81 81 74 77 65 65 52 42 26 19 13 6 10 65 100 100 97 97
23 68 94 100 100 97 97 97 97 97 100 100 100 100 100 100 100 100 100 100 100 100 100 100 100 100 100 100 100 100 100 94 71 58 45 23 19 23 74 100 100 97 97
35 71 94 97 97 97 97 97 97 100 100 100 100 100 100 100 100 100 100 100 100 100 100 100 100 100 100 100 100 100 100 100 100 100 87 68 52 74 87 100 100 100 97
48 77 94 94 94 97 97 100 100 100 100 100 100 100 100 100 100 100 100 100 100 100 100 100 100 100 100 100 100 100 100 100 100 100 100 100 100 100 97 100 100 100 100
52 74 87 97 97 97 97 100 100 100 100 100 100 100 100 100 97 100 100 100 100 100 100 100 100 100 100 100 100 100 100 100 100 100 100 97 100 100 100 100 100 100 100
23 58 81 84 87 100 100 100 100 100 100 100 100 100 100 97 90 100 100 100 100 100 100 100 100 100 100 100 100 100 100 100 100 100 100 100 100 100 100 100 100 100 100
6 32 74 87 90 94 97 84 100 100 100 100 100 97 97 94 84 94 87 94 100 100 100 100 100 100 100 100 100 100 100 100 100 94 94 100 100 100 100 100 100 100 100
0 13 45 87 87 87 84 71 74 87 94 100 100 100 100 100 87 90 77 65 55 81 97 100 100 100 100 100 100 100 100 94 81 71 74 100 100 100 100 100 100 100 100
3 6 32 71 81 77 74 39 55 74 84 84 81 90 97 100 94 84 77 65 61 55 74 97 100 100 100 97 100 97 94 77 74 74 74 97 100 100 100 100 100 100 100
10 6 10 45 71 65 52 39 26 39 52 48 55 71 77 87 84 74 58 58 58 65 84 94 97 97 97 94 94 94 87 84 87 87 84 90 94 97 100 97 100 100 100
29 16 6 13 26 35 42 29 10 10 10 13 26 32 42 61 61 52 52 58 61 61 71 77 81 77 74 74 77 81 74 77 74 74 77 77 68 81 90 97 100 100 100
45 26 16 23 6 6 10 6 10 10 10 16 16 26 32 39 35 42 45 55 58 45 55 55 55 55 61 52 52 52 55 55 48 48 48 48 35 23 39 68 90 100 100
29 32 32 32 32 16 19 6 10 23 26 26 26 32 42 48 58 52 52 61 61 61 52 48 58 39 48 42 39 29 26 26 23 19 19 19 13 16 16 13 42 68 81
39 39 32 23 29 23 26 26 42 42 48 52 48 48 48 65 74 77 77 61 65 52 52 52 39 32 26 29 19 19 13 13 13 13 13 13 10 6 6 10 13 19 32
68 65 52 52 42 35 32 39 42 45 42 48 55 61 68 61 61 68 74 87 68 58 55 45 42 23 16 13 13 13 13 13 13 13 13 13 10 6 6 6 6 16 23
65 55 48 52 45 42 45 45 42 42 42 52 48 45 48 48 55 52 65 68 65 58 48 32 26 19 16 13 13 13 10 6 10 10 10 10 6 6 6 6 6 6 10
52 48 45 35 29 32 32 29 32 16 16 19 29 32 35 39 42 45 45 52 45 45 42 29 23 19 16 16 13 10 6 6 3 0 0 3 3 0 0 3 3 3 3
45 45 35 26 13 16 23 26 19 13 10 10 16 16 10 19 26 26 35 35 39 29 32 29 26 26 16 10 10 10 6 3 0 0 0 0 0 0 0 0 0 0 0
32 32 23 16 16 16 10 10 10 3 6 0 0 0 3 3 13 13 23 23 26 23 23 23 23 26 16 6 3 6 10 3 6 3 0 0 0 0 0 0 0 0 0
23 23 23 19 19 16 19 16 6 3 0 0 0 0 0 0 3 6 13 10 10 10 10 16 23 19 16 3 10 10 6 0 0 0 0 0 0 0 0 0 0 0 0

GEFSSE_con_cape1000_054.txt.gz
Probability
0 32 71 97 100 100 100 100 100 100 100 97 97 97 97 87 81 81 74 71 71 77 90 90 94 90 87 94 94 94 94 97 97 97 90 84 90 81 71 74 65 48 81
0 48 77 97 100 100 100 100 100 100 100 100 100 100 100 87 84 77 68 48 45 58 74 74 81 84 84 84 84 87 81 84 81 81 84 84 84 77 65 39 58 58 84
10 65 74 97 100 100 100 100 100 100 100 100 100 100 100 94 87 61 52 32 23 29 29 45 58 61 65 71 71 68 71 65 58 55 52 26 19 77 61 39 39 84 71
16 71 55 97 100 100 100 100 100 100 100 100 100 100 97 94 84 58 48 23 23 26 16 16 23 19 35 42 35 29 42 35 29 45 32 6 6 65 74 58 39 61 61
29 65 90 97 100 100 100 100 100 100 100 100 97 97 97 97 87 65 58 48 29 19 16 10 6 6 13 13 16 19 16 13 13 13 10 3 19 74 74 87 71 74 77
26 42 94 97 100 100 100 100 100 100 100 97 97 97 97 97 87 74 65 52 29 29 29 16 13 6 10 6 6 13 13 29 19 6 3 6 19 55 52 87 90 94 97
13 39 94 100 100 100 100 100 100 100 100 97 97 100 100 97 87 84 74 65 65 55 48 48 48 48 39 35 32 32 35 39 26 0 3 6 6 61 52 87 100 97 97
6 29 97 100 100 100 100 100 100 100 100 100 100 100 97 100 97 97 97 84 81 90 90 87 87 84 84 84 84 84 77 65 6 3 3 3 10 55 61 84 97 100 97
6 29 97 100 100 97 100 100 100 100 100 100 100 100 100 100 100 100 100 100 100 100 100 100 100 100 100 100 100 100 100 94 77 23 10 23 90 97 84 97 97 100 100
23 39 77 97 100 97 94 97 100 100 100 100 100 100 100 100 100 100 100 100 100 100 100 100 100 100 100 100 100 100 100 100 94 55 74 87 100 100 100 100 100 100 100
48 84 84 94 100 97 87 90 97 100 100 100 100 100 100 100 94 100 100 100 100 100 100 100 100 100 100 100 100 100 100 100 77 84 84 90 100 100 100 100 100 100 100
100 100 100 97 100 94 74 97 97 97 97 100 100 100 100 100 100 94 90 100 100 100 100 100 100 100 100 100 100 100 100 87 68 90 97 100 100 100 100 100 100 100 100
100 100 100 100 100 97 97 97 97 100 100 100 100 100 100 100 100 100 100 100 100 100 100 100 100 100 100 100 100 97 97 90 94 87 94 100 100 100 100 100 100 100 100
100 100 97 100 100 100 100 100 100 100 100 100 100 100 97 100 100 100 100 100 100 100 100 100 100 94 97 97 97 97 97 100 100 100 97 100 100 100 100 100 100 100 100
100 100 100 100 100 100 100 100 100 100 97 97 97 97 97 97 97 97 100 100 100 97 97 100 100 100 100 97 97 97 97 97 97 100 100 97 97 100 100 100 100 100 100
97 100 100 100 100 100 100 100 100 100 100 94 94 90 100 100 100 100 100 100 100 100 100 100 100 100 100 97 97 97 94 90 90 100 100 97 97 97 100 100 100 100 100
97 97 100 100 100 100 100 100 100 97 97 94 94 100 100 100 100 100 100 100 100 100 97 97 100 100 100 94 97 90 90 87 87 90 94 97 94 94 94 100 100 100 100
100 100 100 97 100 100 100 100 100 97 97 100 97 97 100 100 100 100 100 100 100 97 94 97 100 100 97 94 84 81 77 81 77 81 81 90 94 90 90 94 100 97 97
97 97 97 97 97 100 100 100 100 100 100 100 97 100 97 97 97 94 97 100 100 100 100 100 97 97 94 87 77 71 68 68 68 58 71 65 84 87 87 77 87 87 90
90 90 94 94 100 94 90 94 90 87 87 87 87 87 90 90 84 90 94 97 100 100 100 100 100 97 87 84 61 55 52 55 61 55 48 45 65 65 71 71 84 74 65
87 87 87 90 94 90 84 77 71 65 65 58 58 68 71 74 77 84 84 84 87 84 94 94 94 87 81 81 71 52 48 48 42 52 35 39 45 52 65 68 71 65 61
87 87 87 87 81 81 87 87 77 74 55 39 39 61 58 52 65 45 65 61 65 84 84 84 87 84 81 81 68 55 39 39 55 29 42 58 48 55 45 32 58 65 45
74 74 68 81 87 84 84 71 71 71 61 16 16 19 23 35 42 48 55 48 61 52 55 77 77 77 71 84 77 61 55 42 45 52 58 58 74 55 42 35 29 35 45
65 58 65 81 87 81 81 68 48 55 23 16 29 19 32 35 23 26 32 45 55 45 58 55 55 71 84 74 74 71 74 65 45 39 39 48 61 55 42 23 19 29 35
42 45 55 71 81 84 81 77 81 48 26 16 29 39 48 32 32 16 23 32 48 48 48 52 71 77 74 71 68 68 77 77 71 55 35 48 39 45 39 39 35 29 16
39 45 48 58 87 81 74 77 81 68 58 55 58 42 26 23 16 10 13 35 42 35 39 48 55 58 65 68 74 68 61 61 58 48 48 61 65 52 39 45 35 26 16

GEFSSE_con_cape1000_060.txt.gz
Probability
29 61 100 100 100 100 100 100 100 97 90 84 84 71 71 61 65 71 81 84 90 94 94 97 94 81 90 87 90 84 90 87 90 87 90 87 87 81 68 65 77 55 77
42 61 100 100 100 100 100 100 100 100 90 87 81 77 74 68 61 55 61 61 65 81 81 84 81 77 84 84 77 68 65 65 48 45 68 77 74 68 48 68 97 74 84
48 65 100 100 100 100 100 100 100 100 97 97 90 90 77 68 55 42 45 45 45 48 52 61 58 55 58 52 55 45 42 35 23 19 68 61 39 58 29 32 81 77 77
55 58 97 100 100 100 100 100 100 100 100 100 97 90 84 68 55 35 32 23 23 16 19 26 39 35 32 26 26 26 26 29 42 45 61 77 19 61 65 19 23 32 42
52 42 100 100 100 100 100 100 100 100 100 100 100 94 90 68 45 19 16 23 19 16 13 13 13 19 16 10 10 10 10 6 19 23 26 61 48 90 81 52 26 26 39
45 52 100 100 100 100 100 100 100 100 100 100 97 94 87 81 52 35 32 26 13 13 13 13 10 10 6 3 3 3 3 3 10 0 13 16 55 97 97 81 65 61 71
61 87 100 100 100 100 100 100 100 100 100 97 97 97 94 87 74 65 52 52 35 26 16 16 16 16 16 16 13 6 19 23 23 13 19 29 84 94 100 100 94 87 87
77 94 94 100 100 100 100 100 100 100 100 97 97 97 100 100 100 90 87 94 84 74 61 55 58 65 68 74 68 58 61 58 16 3 10 29 87 100 100 100 97 97 100
84 94 90 100 100 100 100 100 100 100 100 97 97 100 100 100 100 100 100 100 100 100 100 100 100 97 90 94 94 94 94 90 81 29 3 23 90 100 100 100 100 100 100
87 97 90 97 100 100 100 100 100 100 100 100 100 100 100 100 100 100 100 100 100 100 100 100 100 100 100 100 100 100 100 100 94 52 23 48 94 100 100 100 100 97 97
87 100 90 94 100 100 100 100 100 100 100 100 100 100 100 100 100 100 100 100 100 100 100 100 100 100 100 100 100 100 100 100 90 71 68 81 100 100 100 100 100 97 97
90 94 97 97 100 100 97 100 100 100 100 100 100 100 100 100 100 100 100 100 100 100 100 100 100 100 100 100 100 100 100 100 97 74 87 100 100 100 100 100 100 100 100
100 97 97 100 100 100 97 100 100 100 100 100 100 100 100 100 100 100 100 100 100 100 100 100 100 100 100 100 100 100 100 100 100 90 94 100 100 100 100 100 100 100 100
100 100 97 100 100 100 100 100 100 100 100 100 100 100 100 100 100 100 100 100 100 100 100 100 100 100 100 97 97 97 97 97 100 97 97 100 100 100 100 100 100 100 100
100 100 100 100 100 100 100 100 100 100 100 100 100 100 100 100 100 100 100 100 100 100 97 100 100 100 97 97 97 97 97 100 97 97 97 97 97 97 97 97 100 100 100
100 100 100 100 100 100 100 100 100 100 100 100 100 97 100 100 100 100 100 100 100 100 100 100 100 97 97 97 94 94 97 94 97 97 94 97 97 97 97 97 97 97 100
97 100 100 100 100 100 100 100 100 100 100 100 100 100 100 100 100 100 100 100 100 100 100 100 100 100 97 100 90 90 90 90 87 90 87 87 90 97 97 97 97 97 100
97 100 100 100 100 100 100 100 100 97 97 97 97 94 97 94 94 97 97 97 100 100 100 100 97 97 97 90 90 87 87 84 87 87 84 81 77 77 84 94 97 100 97
94 97 97 97 97 94 100 97 97 100 100 97 97 97 90 90 94 97 97 97 94 97 100 97 97 97 90 90 87 84 84 84 77 81 74 68 74 77 77 87 90 94 94
97 97 97 97 94 90 90 94 94 94 90 94 97 97 87 84 84 90 84 94 90 90 97 97 94 94 94 87 81 77 74 74 77 77 71 68 61 61 58 58 71 71 87
97 100 94 97 94 90 97 90 90 94 90 90 94 84 55 58 68 77 77 94 97 97 97 87 87 87 87 90 90 77 71 71 71 68 74 58 48 45 52 45 48 61 61
90 94 87 87 90 90 97 97 97 90 90 84 87 77 45 48 55 35 84 87 90 90 87 90 94 94 87 94 94 71 61 61 71 58 68 68 58 58 42 32 39 45 55
77 77 87 84 84 90 97 97 87 100 97 84 87 87 77 42 39 58 61 68 90 81 84 87 84 77 74 81 81 71 65 52 55 65 68 58 61 55 55 45 42 45 58
71 74 97 87 87 94 94 97 97 94 90 87 94 87 77 58 61 48 52 55 74 74 74 77 65 71 74 58 61 81 74 65 55 42 42 61 58 52 55 39 48 55 61
52 65 84 84 87 87 87 87 97 97 97 97 100 90 94 87 84 65 55 55 68 71 74 71 77 74 71 58 48 61 61 71 71 58 13 39 48 48 58 61 61 55 52
32 39 58 65 74 84 87 87 90 97 97 97 97 97 100 100 100 65 55 71 65 71 68 68 74 65 68 68 68 58 52 55 48 55 26 35 29 48 58 65 52 48 42

GEFSSE_con_cape1000_066.txt.gz
Probability
26 90 97 97 94 94 94 90 84 71 74 81 74 81 90 100 100 94 97 97 97 97 97 90 94 94 94 97 100 100 100 100 100 100 97 94 97 100 100 94 77 61 97
32 90 97 97 97 97 97 90 87 84 81 87 71 81 84 94 97 94 97 97 97 94 97 90 87 87 90 90 90 90 90 90 94 97 97 97 97 100 100 90 71 68 81
58 94 97 97 97 100 97 94 87 87 90 87 74 87 84 94 94 94 97 97 94 90 84 81 81 81 77 77 68 74 71 74 77 84 74 39 77 90 97 100 94 97 87
74 97 100 100 100 100 100 97 94 87 94 90 87 87 87 81 77 84 81 87 81 81 81 71 65 61 58 61 45 45 42 39 35 61 39 48 26 94 97 90 97 94 87
74 94 100 100 100 100 100 100 97 97 97 100 94 94 94 84 77 71 71 74 74 68 58 58 58 58 52 42 39 29 29 26 23 26 3 3 3 90 100 100 94 84 77
61 90 100 100 100 100 100 100 100 100 100 100 100 100 94 90 90 87 71 65 68 61 55 48 52 55 48 42 35 29 23 19 19 0 0 0 0 90 100 100 94 87 87
65 94 100 100 100 100 100 100 100 100 100 100 100 97 97 97 94 94 90 77 65 61 61 61 61 58 55 42 35 35 26 26 10 0 0 0 0 94 100 100 100 97 94
71 94 97 100 100 100 100 100 100 100 100 100 97 97 97 97 97 97 97 100 94 84 81 74 81 84 77 77 74 71 68 48 23 6 0 0 0 84 100 100 100 100 100
55 90 97 100 100 100 100 100 100 100 100 100 100 100 100 100 100 100 100 100 100 100 100 100 94 97 97 97 94 94 90 84 58 26 13 6 13 87 100 100 97 97 100
55 77 100 100 100 100 100 100 100 100 100 100 100 100 100 100 100 100 100 100 100 100 100 100 100 100 100 97 97 97 97 97 84 71 39 26 65 100 100 100 100 100 97
55 58 100 100 100 100 100 100 100 100 100 100 100 100 100 100 100 100 100 100 100 100 100 100 100 100 100 100 100 100 100 94 87 81 65 68 90 100 100 100 97 100 100
65 42 84 100 97 97 100 100 100 100 100 100 100 100 100 100 100 100 100 100 100 100 100 100 100 100 100 100 100 100 97 97 94 84 81 94 94 100 100 100 100 97 100
77 61 61 74 87 90 87 94 100 100 100 100 100 100 100 100 100 100 100 100 100 100 100 100 100 100 100 100 97 97 94 97 90 94 84 100 97 97 97 100 100 97 97
81 74 68 74 87 94 84 94 94 100 97 100 100 97 97 97 100 97 97 100 97 97 97 97 97 94 94 97 94 87 84 87 84 71 65 97 100 100 100 100 97 97 97
90 90 84 84 87 94 87 90 94 84 90 94 90 94 97 97 94 90 94 100 97 90 94 94 87 87 87 84 87 84 84 84 81 74 71 100 100 100 100 97 97 97 97
84 87 84 87 94 100 94 97 100 97 97 97 97 94 97 90 87 84 81 81 87 87 90 87 87 87 84 74 77 77 71 71 71 65 71 87 97 94 94 94 97 94 97
61 74 90 94 97 97 100 100 97 90 94 94 94 94 94 87 84 84 81 84 84 87 87 84 81 74 68 61 61 68 65 61 65 71 71 71 74 94 97 100 100 94 97
52 61 71 77 74 74 84 90 87 84 84 84 87 84 84 84 81 81 71 74 81 74 71 74 65 52 48 45 48 39 39 48 65 61 58 58 52 52 81 94 100 97 94
45 52 61 61 61 68 71 74 84 71 74 77 77 77 77 77 81 77 65 61 68 58 45 52 52 42 35 29 35 45 32 32 32 48 48 52 48 52 52 58 90 81 84
35 32 39 45 42 55 65 65 68 71 71 74 77 74 71 68 55 55 45 42 48 42 35 26 35 26 29 19 29 39 29 23 19 23 29 32 35 35 45 45 45 55 74
32 32 32 26 39 35 42 61 61 65 58 55 61 61 45 48 45 45 39 29 29 23 26 23 23 23 13 16 19 13 6 3 6 13 26 29 26 26 29 35 35 32 35
23 29 29 32 23 23 35 45 39 45 42 39 35 39 29 26 29 29 19 19 23 16 13 10 13 16 13 13 13 3 0 0 0 0 0 0 13 16 16 26 23 29 29
23 16 19 23 16 10 19 29 32 26 23 16 16 16 13 16 10 10 13 13 16 16 10 3 10 10 6 3 3 3 0 0 0 0 0 0 0 0 3 6 10 23 19
6 6 0 6 6 10 10 13 23 23 19 13 3 10 10 6 3 6 13 10 6 6 6 6 3 3 0 0 3 0 0 0 0 0 0 0 0 0 0 3 6 10 13
0 3 0 3 3 3 3 6 6 10 10 10 6 6 10 6 3 3 10 3 3 3 3 3 3 3 0 0 0 0 3 0 0 0 0 0 0 0 0 0 0 0 6
0 0 0 0 0 0 3 3 3 6 3 0 3 3 3 0 3 3 3 3 3 3 3 3 3 6 3 3 0 0 0 0 0 0 0 0 0 0 0 0 0 0 0

GEFSSE_con_cape1000_072.txt.gz
Probability
10 55 97 87 84 71 77 84 84 94 97 100 100 100 100 100 100 100 100 97 97 97 90 90 90 87 97 97 100 100 100 100 100 100 97 100 94 94 97 100 87 74 100
16 55 97 90 84 84 87 81 81 87 94 97 100 100 100 100 100 97 97 97 97 94 90 87 87 84 87 97 94 97 100 100 100 97 97 97 100 97 90 84 74 77 94
32 71 94 94 84 84 87 87 81 87 90 94 100 97 97 97 97 97 97 97 94 94 87 87 84 84 81 84 87 87 94 94 94 94 97 94 97 100 90 81 77 90 81
45 74 87 97 90 90 90 90 87 90 94 94 100 97 97 94 97 97 97 90 90 90 81 84 87 74 71 74 81 87 87 87 94 94 52 71 84 94 100 94 94 90 81
55 81 87 100 97 90 90 94 90 94 94 97 97 100 100 94 94 97 97 90 90 90 74 74 68 68 68 71 68 71 74 71 84 55 19 26 39 87 100 100 100 97 87
68 81 94 100 97 94 94 94 90 94 97 97 100 97 100 97 94 90 87 87 87 84 74 74 65 65 65 61 65 52 52 45 58 23 6 3 0 71 100 100 100 100 94
68 84 94 100 100 97 94 94 97 97 97 97 100 97 97 100 100 97 90 87 90 84 84 81 81 74 71 65 65 58 35 29 26 10 3 3 3 32 97 100 100 100 97
81 90 97 100 100 100 100 97 97 100 100 100 100 100 100 100 100 97 97 97 97 97 100 94 94 90 90 90 84 84 71 39 26 16 13 13 13 35 87 100 100 97 97
84 94 97 100 100 100 100 100 100 100 100 100 100 100 100 100 100 100 100 100 100 100 100 100 100 100 100 100 100 97 90 81 61 32 19 16 16 42 81 100 100 100 94
87 97 100 100 100 100 100 100 100 100 100 100 100 100 100 100 100 100 100 100 100 100 100 100 100 100 100 100 100 100 100 97 90 58 48 39 45 65 87 100 100 100 100
87 94 97 100 100 100 100 100 100 100 100 100 100 100 100 100 100 100 100 100 100 100 100 100 100 100 100 100 100 100 100 97 90 81 74 71 77 81 94 97 100 97 100
84 94 97 100 100 100 100 100 100 100 100 100 100 100 100 100 100 100 100 100 100 100 100 100 100 100 100 100 100 100 100 97 94 90 87 90 90 90 94 100 97 97 97
55 84 94 97 100 100 100 100 100 100 100 100 100 100 100 100 100 100 100 100 100 100 97 100 100 100 100 100 100 97 100 97 97 97 97 97 100 100 97 97 97 97 100
48 65 87 97 100 100 100 97 97 100 100 100 100 100 100 100 100 100 100 97 97 97 97 97 97 97 97 97 97 94 90 94 94 97 90 100 100 100 97 97 97 97 97
58 55 65 90 90 94 84 81 87 97 97 100 100 100 100 100 100 100 97 90 84 90 90 94 90 90 90 90 87 90 90 90 94 97 90 97 100 100 100 100 97 97 97
58 58 52 65 74 74 77 68 61 77 90 90 94 97 100 100 94 81 77 81 77 74 71 81 84 84 81 81 77 81 87 87 87 87 87 84 94 94 87 94 97 97 97
52 61 61 58 58 58 65 61 68 68 71 71 74 74 90 87 84 74 61 61 61 52 61 68 68 61 65 71 74 74 81 77 77 77 81 77 77 84 84 94 94 94 94
45 48 52 52 32 42 42 52 55 52 52 52 55 68 71 68 81 71 55 52 48 39 35 39 32 35 42 42 35 35 39 35 45 52 65 71 71 68 81 90 94 94 94
35 32 35 35 32 29 35 39 35 39 45 45 52 55 52 48 55 52 48 39 35 19 19 23 19 13 16 19 19 16 19 29 29 29 42 48 55 58 58 58 87 87 87
29 29 29 26 23 19 19 26 23 29 32 32 39 39 45 45 42 42 35 32 23 19 10 13 13 6 13 3 6 16 16 19 19 19 23 29 39 48 48 48 58 55 71
19 19 23 16 16 13 13 19 16 23 10 10 16 23 26 29 35 39 42 23 13 16 6 10 6 3 3 3 3 6 0 0 3 6 6 13 23 26 35 45 45 45 42
6 3 3 3 3 3 6 6 10 6 6 6 6 10 10 13 10 32 19 19 13 6 6 3 0 0 3 3 3 0 0 0 0 0 0 0 3 10 13 13 26 32 32
0 0 3 0 0 0 0 0 6 3 3 6 6 6 6 6 3 10 10 10 3 3 0 0 0 0 0 0 0 0 0 0 0 0 0 0 0 3 6 3 6 10 26
0 0 3 0 0 0 0 3 3 0 0 0 0 3 3 0 0 0 3 3 0 0 0 0 0 0 0 0 0 0 0 0 3 0 0 0 0 0 0 0 0 3 6
0 0 0 0 0 0 0 0 0 3 0 0 0 0 0 0 0 0 0 0 0 0 0 0 0 0 0 0 0 0 0 0 0 3 0 0 0 0 0 0 0 0 0
0 0 0 0 0 0 0 0 0 0 0 0 0 0 0 0 0 0 0 0 0 0 0 0 3 0 0 0 0 0 0 0 0 3 0 0 0 0 0 0 0 0 0

GEFSSE_con_cape1000_078.txt.gz
Probability
3 58 97 100 100 100 97 100 100 100 100 100 100 100 100 100 100 100 97 97 97 94 87 90 94 94 94 97 97 97 100 100 100 100 97 97 100 100 100 90 77 65 87
3 71 97 100 100 100 97 97 100 100 100 100 100 100 100 100 100 97 97 97 97 87 81 87 90 94 94 97 100 100 100 100 100 94 94 97 94 100 94 71 74 81 97
23 77 97 100 100 97 97 97 100 100 100 100 100 100 100 100 97 97 97 97 90 84 87 84 81 87 87 87 90 97 97 94 94 97 94 52 48 90 87 61 90 97 97
45 87 84 97 97 94 97 97 97 100 100 100 100 100 97 97 97 97 97 97 90 84 77 77 77 77 77 84 84 94 87 87 90 94 81 32 16 81 81 74 90 94 90
58 87 94 100 97 97 94 97 97 100 100 100 100 97 97 97 94 94 90 87 84 81 74 71 61 65 71 65 65 77 77 84 81 81 26 42 68 90 94 87 90 84 87
58 81 94 100 100 100 97 97 100 100 100 100 97 97 97 97 94 94 90 87 84 77 74 74 74 68 68 61 68 71 71 74 71 42 32 39 68 97 87 94 94 94 97
52 77 94 100 100 100 100 100 100 100 100 100 97 97 97 97 97 94 87 87 87 84 71 74 74 71 71 61 61 61 71 68 71 35 42 32 74 97 90 94 97 97 97
39 65 94 100 100 100 100 100 100 100 100 100 100 97 97 100 100 97 94 90 90 90 94 90 90 81 81 81 81 68 74 68 23 16 26 32 77 61 84 100 100 100 97
32 61 97 97 100 100 100 100 100 100 100 100 100 100 100 100 100 100 100 100 100 100 97 97 97 94 97 97 94 94 87 81 35 13 6 26 77 58 74 100 100 100 100
55 81 94 100 100 97 97 100 100 100 100 100 100 100 100 100 100 100 100 100 100 100 100 100 100 100 100 100 100 100 90 84 32 6 16 26 90 74 81 97 100 100 100
87 94 94 97 100 97 87 97 100 100 100 100 100 100 100 100 77 100 94 100 100 100 100 100 100 97 97 97 100 100 97 65 39 35 42 61 90 77 87 97 97 100 100
94 94 100 97 100 97 90 100 97 97 100 100 100 100 100 100 100 90 97 97 100 100 100 100 97 97 97 94 97 100 84 68 48 48 52 97 97 87 90 97 97 100 97
100 97 100 100 100 97 100 97 100 100 100 100 100 100 100 100 100 100 100 100 100 100 97 97 97 97 94 94 97 97 87 71 68 71 74 97 97 97 97 97 94 97 100
100 100 100 100 100 100 100 100 100 97 100 100 100 100 100 100 100 100 100 100 94 94 97 94 97 97 97 100 100 100 100 94 81 81 90 97 97 100 100 97 97 94 94
100 100 100 100 100 100 100 94 90 94 94 97 100 100 100 100 100 100 100 97 97 94 97 97 97 97 97 97 94 84 94 94 87 84 94 94 97 97 97 97 94 97 100
100 100 100 97 97 100 94 97 90 90 90 87 87 84 97 97 97 94 97 97 97 97 97 90 94 94 94 81 77 71 81 84 77 87 81 87 97 94 97 97 94 94 97
100 100 97 97 87 84 84 84 81 81 74 74 77 84 84 90 94 87 90 90 87 87 94 87 84 87 87 84 81 77 84 84 81 84 81 97 97 97 97 97 97 97 97
100 97 90 84 87 81 84 77 77 74 71 77 71 65 81 77 74 84 84 71 71 77 74 81 74 71 68 74 74 71 77 81 81 84 87 90 90 90 100 97 94 94 90
90 90 84 84 81 74 77 77 74 81 81 71 61 58 68 68 61 61 65 58 55 58 55 52 55 65 61 65 65 68 61 65 68 68 68 71 84 87 84 90 94 87 90
74 74 74 74 81 77 74 77 77 77 74 61 58 52 48 48 45 52 48 42 45 39 45 58 65 71 68 68 39 32 42 48 52 52 52 52 55 65 68 68 90 87 87
55 58 65 71 61 77 68 74 68 68 65 48 39 39 35 39 32 35 35 42 45 35 45 52 58 52 58 61 42 32 29 23 23 35 39 45 45 52 61 68 74 77 84
55 58 52 58 61 58 65 74 84 74 61 42 29 35 29 32 39 32 35 35 45 39 39 48 65 52 42 39 35 23 16 16 35 13 39 45 45 45 48 52 61 81 74
48 48 39 52 61 61 55 55 58 61 58 29 32 39 26 32 32 32 35 42 42 39 39 55 65 65 39 39 35 23 10 10 6 16 23 19 39 39 35 32 45 45 58
32 32 32 48 42 45 48 39 32 48 48 32 35 29 19 13 6 16 16 35 39 42 48 45 35 45 61 29 26 48 26 13 6 10 19 19 23 26 23 16 23 32 48
19 29 32 32 32 35 35 35 42 29 23 13 10 13 16 13 10 10 13 13 29 26 32 35 48 55 61 42 32 29 26 35 16 10 13 16 19 16 23 23 19 19 29
13 10 16 16 26 26 26 29 26 19 16 19 16 10 6 3 6 3 3 13 16 13 23 29 32 42 42 45 48 42 29 26 16 10 6 16 16 13 10 19 16 23 35